FW1901 Weather Reports


time (UTC)temp
F
wind
direction
speed
knots
gust
knots
rain 1hr
in
rain 24hr
in
rain mn
in
humidity
%
barometer
mb
20260509084605 54 3 0.0 0.0 0.01 0.31 0.04 78 1005.7
20260509084105 54 3 0.0 0.0 0.01 0.31 0.04 78 1005.7
20260509083605 54 3 0.0 0.0 0.01 0.31 0.04 78 1005.8
20260509083105 54 3 0.0 0.0 0.01 0.31 0.04 78 1005.8
20260509081606 54 3 0.0 0.0 0.01 0.31 0.04 78 1005.9
20260509081105 54 3 0.0 0.0 0.00 0.30 0.03 78 1005.8
20260509080605 54 3 0.0 0.0 0.00 0.30 0.03 78 1005.9
20260509080105 54 3 0.0 0.0 0.00 0.30 0.03 78 1005.9
20260509074605 55 3 0.0 0.0 0.00 0.30 0.03 78 1006.0
20260509074106 55 3 0.0 0.0 0.00 0.30 0.03 78 1006.0
20260509073605 55 3 0.0 0.0 0.01 0.30 0.03 78 1006.0
20260509073106 55 3 0.0 0.0 0.01 0.30 0.03 78 1005.9
20260509071606 55 3 0.0 0.0 0.01 0.30 0.03 78 1006.0
20260509071105 55 3 0.0 0.0 0.01 0.30 0.03 78 1005.9
20260509070605 55 3 0.0 0.0 0.01 0.30 0.03 78 1006.1
20260509070105 55 3 0.0 0.0 0.01 0.30 0.03 78 1006.2
20260509064605 55 3 0.0 0.0 0.02 0.30 0.03 78 1006.4
20260509064105 55 3 0.0 0.0 0.02 0.30 0.03 78 1006.5
20260509063605 55 3 0.0 0.0 0.01 0.29 0.02 78 1006.6
20260509063105 55 3 0.0 0.0 0.01 0.29 0.02 78 1006.7
20260509061606 55 3 0.0 0.0 0.01 0.29 0.02 78 1006.8
20260509061105 55 3 0.0 0.0 0.01 0.29 0.02 78 1006.8
20260509060606 55 3 0.0 0.0 0.01 0.29 0.02 78 1006.9
20260509060106 55 3 0.0 0.0 0.01 0.29 0.02 78 1006.9
20260509054105 55 3 0.0 0.0 0.00 0.28 0.01 78 1007.4
20260509053105 55 3 0.0 0.0 0.00 0.28 0.01 78 1007.5
20260509051105 55 3 0.0 0.0 0.00 0.28 0.01 78 1007.5
20260509050605 54 3 0.0 0.0 0.01 0.28 0.01 78 1007.5
20260509044105 54 3 0.0 0.0 0.01 0.28 0.01 79 1007.3
20260509043605 54 3 0.0 0.0 0.01 0.28 0.01 79 1007.4
20260509043106 54 3 0.0 0.0 0.01 0.28 0.01 79 1007.3
20260509041105 54 3 0.0 0.0 0.01 0.28 0.01 79 1007.4
20260509040105 54 3 0.0 0.0 0.00 0.27 0.00 79 1007.5
20260509034605 54 3 0.0 0.0 0.01 0.27 0.27 79 1007.4
20260509034105 54 3 0.0 0.0 0.01 0.27 0.27 79 1007.4
20260509033605 54 3 0.0 0.0 0.01 0.27 0.27 80 1007.3
20260509033105 54 3 0.0 0.0 0.01 0.27 0.27 80 1007.3
20260509031105 54 3 0.0 0.0 0.02 0.27 0.27 80 1007.3
20260509030605 55 3 0.0 0.9 0.02 0.27 0.27 80 1007.3
20260509030105 55 11 0.0 0.9 0.02 0.27 0.27 80 1007.4
20260509024605 55 224 0.0 2.6 0.01 0.26 0.26 81 1007.6
20260509024104 55 183 0.9 2.6 0.01 0.26 0.26 81 1007.5
20260509023605 55 202 1.7 2.6 0.01 0.26 0.26 81 1007.6
20260509021105 55 273 2.6 7.8 0.01 0.25 0.25 81 1007.8
20260509020605 55 294 1.7 7.8 0.01 0.25 0.25 81 1007.7
20260509014604 55 229 1.7 10.4 0.02 0.25 0.25 80 1007.5
20260509013605 55 252 2.6 7.0 0.03 0.25 0.25 80 1007.5
20260509013105 55 260 2.6 7.0 0.04 0.25 0.25 80 1007.4
20260509011605 55 271 1.7 5.2 0.03 0.24 0.24 80 1007.5
20260509011105 55 263 1.7 5.2 0.04 0.24 0.24 80 1007.5
20260509010604 55 239 2.6 5.2 0.04 0.24 0.24 80 1007.4
20260509010105 55 223 1.7 7.0 0.04 0.24 0.24 80 1007.5
20260509004605 55 228 1.7 6.1 0.05 0.23 0.23 80 1007.6
20260509004105 55 257 1.7 6.1 0.05 0.22 0.22 80 1007.6
20260509003605 55 268 2.6 6.1 0.06 0.22 0.22 80 1007.6
20260509003105 55 268 1.7 5.2 0.06 0.21 0.21 80 1007.5
20260509001105 55 210 0.9 2.6 0.07 0.20 0.20 81 1007.5
20260509000605 55 286 1.7 2.6 0.08 0.20 0.20 81 1007.4
20260508234605 55 208 1.7 7.0 0.08 0.18 0.18 81 1007.9
20260508234105 55 254 1.7 4.3 0.08 0.17 0.17 81 1007.9
20260508233604 55 245 0.9 2.6 0.07 0.16 0.16 81 1007.8
20260508233105 55 212 1.7 2.6 0.07 0.15 0.15 81 1008.0
20260508231605 55 231 0.9 2.6 0.06 0.13 0.13 82 1008.0
20260508231105 55 253 0.9 2.6 0.07 0.13 0.13 82 1007.7
20260508230605 55 245 1.7 2.6 0.07 0.12 0.12 82 1007.7
20260508224604 56 274 1.7 2.6 0.06 0.10 0.10 82 1008.3
20260508224104 56 337 0.0 1.7 0.06 0.09 0.09 82 1008.3
20260508223605 56 328 0.9 1.7 0.07 0.09 0.09 83 1008.3
20260508223104 56 328 0.9 1.7 0.07 0.08 0.08 83 1007.8
20260508221605 56 328 0.0 0.9 0.07 0.07 0.07 83 1008.0
20260508221104 56 328 0.0 0.9 0.06 0.06 0.06 83 1008.0
20260508220104 56 328 0.0 1.7 0.05 0.05 0.05 83 1008.1
20260508214605 57 288 0.0 2.6 0.04 0.04 0.04 83 1008.4
20260508214105 57 294 0.9 2.6 0.03 0.03 0.03 83 1008.4
20260508213604 57 336 1.7 4.3 0.02 0.02 0.02 83 1008.4
20260508213105 58 289 1.7 4.3 0.01 0.01 0.01 83 1008.5
20260508211605 59 356 0.9 4.3 0.00 0.00 0.00 81 1008.1
20260508211105 59 351 1.7 4.3 0.00 0.00 0.00 81 1007.9
20260508210604 60 23 1.7 6.1 0.00 0.00 0.00 80 1007.9
20260508210105 60 328 0.9 7.8 0.00 0.00 0.00 77 1007.9
20260508204605 62 299 2.6 6.1 0.00 0.00 0.00 69 1007.8
20260508204104 63 305 1.7 6.1 0.00 0.00 0.00 66 1007.8
20260508203606 63 282 2.6 6.1 0.00 0.00 0.00 64 1007.7
20260508203105 64 279 1.7 6.1 0.00 0.00 0.00 63 1007.7
20260508201604 64 245 1.7 6.1 0.00 0.00 0.00 58 1007.7
20260508200105 65 271 2.6 10.4 0.00 0.00 0.00 57 1007.9
20260508194604 65 229 1.7 7.0 0.00 0.00 0.00 57 1007.8
20260508193604 65 287 2.6 8.7 0.00 0.00 0.00 56 1008.1
20260508193105 65 271 2.6 8.7 0.00 0.00 0.00 56 1008.1
20260508191606 65 267 1.7 10.4 0.00 0.00 0.00 58 1008.3
20260508184604 64 261 1.7 4.3 0.00 0.00 0.00 61 1009.0
20260508184104 64 152 1.7 2.6 0.00 0.00 0.00 61 1009.2
20260508183605 64 276 1.7 7.0 0.00 0.00 0.00 60 1009.2
20260508183105 64 292 0.9 7.8 0.00 0.00 0.00 60 1009.2
20260508181604 64 254 3.5 8.7 0.00 0.00 0.00 60 1009.4
20260508181105 63 273 3.5 8.7 0.00 0.00 0.00 59 1009.4
20260508180604 63 251 3.5 10.4 0.00 0.00 0.00 59 1009.4
20260508180105 63 260 3.5 10.4 0.00 0.00 0.00 59 1009.5
20260508174606 63 202 3.5 10.4 0.00 0.00 0.00 58 1009.6
20260508174104 63 240 3.5 10.4 0.00 0.00 0.00 58 1009.6
20260508173604 63 245 4.3 10.4 0.00 0.00 0.00 57 1009.6
20260508173104 63 265 3.5 11.3 0.00 0.00 0.00 57 1009.8
20260508171105 64 259 3.5 11.3 0.00 0.00 0.00 57 1010.0
20260508170104 64 274 2.6 12.2 0.00 0.00 0.00 56 1010.0
20260508164604 64 245 5.2 11.3 0.00 0.00 0.00 56 1010.3
20260508164104 64 254 5.2 12.2 0.00 0.00 0.00 54 1010.3
20260508163604 64 294 2.6 12.2 0.00 0.00 0.00 55 1010.5
20260508163104 65 227 5.2 12.2 0.00 0.00 0.00 54 1010.5
20260508161605 66 209 5.2 11.3 0.00 0.00 0.00 53 1010.7
20260508161104 66 227 6.1 12.2 0.00 0.00 0.00 52 1010.8
20260508160104 65 269 4.3 13.9 0.00 0.00 0.00 56 1010.8
20260508154604 64 244 4.3 12.2 0.00 0.00 0.00 58 1010.8
20260508154104 63 201 1.7 10.4 0.00 0.00 0.00 58 1010.9
20260508153104 63 268 4.3 10.4 0.00 0.00 0.00 56 1010.9
20260508151605 63 244 3.5 10.4 0.00 0.00 0.00 58 1010.8
20260508151104 62 274 3.5 10.4 0.00 0.00 0.00 58 1010.9
20260508150604 62 244 2.6 10.4 0.00 0.00 0.00 57 1010.9
20260508150105 63 224 4.3 11.3 0.00 0.00 0.00 56 1010.9
20260508144603 62 252 5.2 11.3 0.00 0.00 0.00 57 1011.0
20260508144104 62 228 4.3 11.3 0.00 0.00 0.00 58 1011.0
20260508143604 62 292 3.5 15.6 0.00 0.00 0.00 57 1011.0
20260508143104 61 278 5.2 15.6 0.00 0.00 0.00 57 1011.1
20260508141604 60 286 3.5 13.0 0.00 0.00 0.00 60 1011.4
20260508141104 60 285 6.1 13.0 0.00 0.00 0.00 59 1011.4
20260508140605 60 254 3.5 13.0 0.00 0.00 0.00 59 1011.3
20260508140105 59 249 5.2 13.0 0.00 0.00 0.00 60 1011.5
20260508134604 58 244 2.6 10.4 0.00 0.00 0.00 63 1011.5
20260508134104 58 259 2.6 8.7 0.00 0.00 0.00 63 1011.6
20260508133604 57 269 3.5 10.4 0.00 0.00 0.00 63 1011.5
20260508133104 57 252 4.3 10.4 0.00 0.00 0.00 64 1011.5
20260508131605 55 283 3.5 8.7 0.00 0.00 0.00 64 1011.6
20260508131104 55 253 3.5 10.4 0.00 0.00 0.00 64 1011.7
20260508130604 55 221 4.3 10.4 0.00 0.00 0.00 64 1011.7
20260508130104 54 225 4.3 8.7 0.00 0.00 0.00 65 1011.6
20260508124604 53 250 2.6 11.3 0.00 0.00 0.00 66 1011.6
20260508123104 52 252 4.3 11.3 0.00 0.00 0.00 67 1011.4
20260508121604 51 285 4.3 8.7 0.00 0.00 0.00 69 1011.5
20260508121104 51 242 3.5 8.7 0.00 0.00 0.00 69 1011.5
20260508120603 50 254 1.7 8.7 0.00 0.00 0.00 70 1011.5
20260508120104 50 251 3.5 8.7 0.00 0.00 0.00 69 1011.5
20260508114603 49 258 2.6 7.0 0.00 0.00 0.00 71 1011.5
20260508114104 49 241 2.6 5.2 0.00 0.00 0.00 71 1011.5
20260508113604 49 278 1.7 4.3 0.00 0.00 0.00 70 1011.4
20260508113104 49 3 0.0 0.0 0.00 0.00 0.00 70 1011.4
20260508111604 48 3 0.0 0.0 0.00 0.00 0.00 70 1011.3
20260508111105 48 3 0.0 0.0 0.00 0.00 0.00 70 1011.2
20260508110604 48 3 0.0 0.0 0.00 0.00 0.00 70 1011.3
20260508110104 48 3 0.0 0.0 0.00 0.00 0.00 69 1011.3
20260508104603 48 3 0.0 0.0 0.00 0.00 0.00 70 1011.2
20260508103604 49 3 0.0 0.0 0.00 0.00 0.00 69 1011.3
20260508103104 49 3 0.0 0.0 0.00 0.00 0.00 69 1011.2
20260508101106 49 3 0.0 0.0 0.00 0.00 0.00 69 1011.2
20260508100605 49 3 0.0 0.0 0.00 0.00 0.00 68 1011.1
20260508100105 49 3 0.0 0.0 0.00 0.00 0.00 68 1011.1
20260508094606 49 3 0.0 0.0 0.00 0.00 0.00 69 1011.1
20260508094105 49 3 0.0 0.0 0.00 0.00 0.00 69 1011.1
20260508093605 49 3 0.0 0.0 0.00 0.00 0.00 70 1011.1
20260508093106 49 3 0.0 0.0 0.00 0.00 0.00 69 1011.1
20260508091606 50 3 0.0 0.0 0.00 0.00 0.00 69 1011.1
20260508091105 50 3 0.0 0.0 0.00 0.00 0.00 69 1011.1
20260508090606 50 3 0.0 0.0 0.00 0.00 0.00 70 1011.1